Weather History for Newark Heath, OH

Change the Weather History Date:

Wednesday, August 21, 2013

  Actual Average Record
Temperature  
Mean Temperature 70 °F -  
Max Temperature 82 °F 81 °F 98 °F (1936)
Min Temperature 57 °F 58 °F 38 °F (1950)
Cooling Degree Days 4    
Growing Degree Days 20 (Base 50)    
Moisture  
Dew Point 60 °F    
Average Humidity 91    
Maximum Humidity 100    
Minimum Humidity 58    
Precipitation  
Precipitation 0.02 in - - ()
Sea Level Pressure  
Sea Level Pressure 30.16 in    
Wind  
Wind Speed 0 mph (SE)    
Max Wind Speed 6 mph    
Max Gust Speed -    
Visibility 4 miles    
Events Fog , Rain    
Averages and records for this station are not official NWS values.
T = Trace of Precipitation, MM = Missing Value Source: NWS Daily Summary

Daily Weather History Graph

Daily Weather History Graph

Search for Another Location

Airport:

Trip Planner

Search our weather history database for the weather conditions in past years. The results will help you decide how hot, cold, wet, or windy it might be!

Date:

Astronomy

Aug. 21, 2013 Rise Set
Actual Time 6:47 AM EDT 8:17 PM EDT
Civil Twilight 6:18 AM EDT 8:46 PM EDT
Nautical Twilight 5:44 AM EDT 9:20 PM EDT
Astronomical Twilight 5:08 AM EDT 9:56 PM EDT
Moon 8:25 PM EDT (8/21) 7:26 AM EDT (8/21)
Length of Visible Light 14h 27m
Length of Day
13h 30m
Full, 100% of the Moon is Illuminated
Aug 21
Full
Aug 28
Last Quarter
Sep 5
New
Sep 12
First Quarter
Sep 19
Full

Hourly Weather History & Observations

Time (EDT) Temp. Heat Index Dew Point Humidity Pressure Visibility Wind Dir Wind Speed Gust Speed Precip Events Conditions
12:06 AM 62.6 °F - 60.8 °F 94% 30.18 in 5.0 mi Calm Calm - N/A   Clear
12:48 AM 60.8 °F - 60.8 °F 100% 30.18 in 1.5 mi Calm Calm - N/A   Clear
12:54 AM 61.0 °F - 60.1 °F 97% 30.17 in 1.2 mi Calm Calm - N/A   Clear
12:59 AM 62.6 °F - 60.8 °F 94% 30.18 in 3.0 mi Calm Calm - N/A   Clear
1:09 AM 60.8 °F - 60.8 °F 100% 30.18 in 1.8 mi Calm Calm - N/A   Clear
1:18 AM 62.6 °F - 60.8 °F 94% 30.18 in 3.0 mi Calm Calm - N/A   Clear
1:34 AM 60.8 °F - 60.8 °F 100% 30.18 in 1.8 mi Calm Calm - N/A   Clear
1:45 AM 60.8 °F - 60.8 °F 100% 30.18 in 0.8 mi Calm Calm - N/A   Clear
1:54 AM 59.0 °F - 59.0 °F 100% 30.16 in 0.2 mi Calm Calm - N/A Fog Fog
2:03 AM 60.8 °F - 59.0 °F 94% 30.17 in 1.0 mi Calm Calm - N/A   Mist
2:06 AM 60.8 °F - 59.0 °F 94% 30.17 in 2.0 mi Calm Calm - N/A   Partly Cloudy
2:15 AM 60.8 °F - 59.0 °F 94% 30.17 in 1.0 mi Calm Calm - N/A   Mist
2:22 AM 60.8 °F - 59.0 °F 94% 30.18 in 0.5 mi Calm Calm - N/A Fog Fog
2:29 AM 59.0 °F - 57.2 °F 94% 30.18 in 0.2 mi Calm Calm - N/A Fog Fog
2:45 AM 59.0 °F - 57.2 °F 94% 30.17 in 0.8 mi Calm Calm - N/A   Mist
2:50 AM 60.8 °F - 59.0 °F 94% 30.17 in 1.2 mi Calm Calm - N/A   Scattered Clouds
2:54 AM 59.0 °F - 59.0 °F 100% 30.16 in 1.5 mi Calm Calm - N/A   Scattered Clouds
2:59 AM 59.0 °F - 57.2 °F 94% 30.17 in 3.0 mi Calm Calm - N/A   Partly Cloudy
3:06 AM 57.2 °F - 57.2 °F 100% 30.17 in 1.8 mi Calm Calm - N/A   Clear
3:09 AM 57.2 °F - 57.2 °F 100% 30.17 in 1.0 mi Calm Calm - N/A   Mist
3:16 AM 57.2 °F - 57.2 °F 100% 30.17 in 0.5 mi Calm Calm - N/A Fog Fog
3:26 AM 57.2 °F - 57.2 °F 100% 30.17 in 0.2 mi Calm Calm - N/A Fog Fog
3:36 AM 59.0 °F - 57.2 °F 94% 30.17 in 0.5 mi Calm Calm - N/A Fog Fog
3:42 AM 59.0 °F - 57.2 °F 94% 30.17 in 1.5 mi Calm Calm - N/A   Scattered Clouds
3:45 AM 59.0 °F - 57.2 °F 94% 30.17 in 3.0 mi Calm Calm - N/A   Scattered Clouds
3:54 AM 59.0 °F - 57.9 °F 96% 30.15 in 3.0 mi Calm Calm - N/A   Partly Cloudy
3:58 AM 59.0 °F - 57.2 °F 94% 30.17 in 1.2 mi Calm Calm - N/A   Partly Cloudy
4:00 AM 59.0 °F - 57.2 °F 94% 30.17 in 0.8 mi Calm Calm - N/A   Mist
4:11 AM 59.0 °F - 57.2 °F 94% 30.16 in 1.2 mi Calm Calm - N/A   Scattered Clouds
4:16 AM 59.0 °F - 57.2 °F 94% 30.16 in 0.8 mi Calm Calm - N/A   Mist
4:24 AM 57.2 °F - 57.2 °F 100% 30.16 in 0.2 mi Calm Calm - N/A Fog Fog
4:41 AM 57.2 °F - 57.2 °F 100% 30.16 in 1.0 mi Calm Calm - 0.01 in   Mist
4:54 AM 57.0 °F - 55.9 °F 96% 30.15 in 0.2 mi Calm Calm - 0.01 in Fog Fog
4:57 AM 57.2 °F - 55.4 °F 94% 30.16 in 0.5 mi Calm Calm - N/A Fog Fog
5:05 AM 57.2 °F - 57.2 °F 100% 30.16 in 1.2 mi Calm Calm - N/A   Partly Cloudy
5:18 AM 57.2 °F - 57.2 °F 100% 30.16 in 2.0 mi Calm Calm - N/A   Clear
5:34 AM 57.2 °F - 57.2 °F 100% 30.17 in 4.0 mi Calm Calm - N/A   Clear
5:52 AM 57.2 °F - 57.2 °F 100% 30.17 in 1.8 mi Calm Calm - N/A   Clear
5:54 AM 57.9 °F - 57.0 °F 97% 30.16 in 1.5 mi Calm Calm - N/A   Clear
6:15 AM 57.2 °F - 57.2 °F 100% 30.17 in 1.0 mi Calm Calm - N/A   Scattered Clouds
6:21 AM 57.2 °F - 57.2 °F 100% 30.17 in 3.0 mi Calm Calm - N/A   Mostly Cloudy
6:31 AM 59.0 °F - 57.2 °F 94% 30.17 in 2.5 mi Calm Calm - N/A   Mostly Cloudy
6:54 AM 59.0 °F - 57.9 °F 96% 30.17 in 1.5 mi Calm Calm - N/A   Mostly Cloudy
7:05 AM 59.0 °F - 57.2 °F 94% 30.18 in 0.8 mi Calm Calm - N/A   Scattered Clouds
7:15 AM 59.0 °F - 57.2 °F 94% 30.18 in 1.5 mi Calm Calm - N/A   Partly Cloudy
7:25 AM 59.0 °F - 57.2 °F 94% 30.19 in 2.5 mi Calm Calm - N/A   Clear
7:54 AM 62.1 °F - 60.1 °F 93% 30.18 in 2.0 mi Calm Calm - N/A   Clear
8:15 AM 64.4 °F - 60.8 °F 88% 30.19 in 3.0 mi Calm Calm - N/A   Clear
8:54 AM 68.0 °F - 64.0 °F 87% 30.19 in 6.0 mi Calm Calm - N/A   Clear
9:54 AM 73.0 °F - 64.9 °F 76% 30.19 in 9.0 mi Calm Calm - N/A   Clear
10:54 AM 78.1 °F - 64.9 °F 64% 30.19 in 10.0 mi Variable 3.5 mph - N/A   Scattered Clouds
11:54 AM 79.0 °F - 66.0 °F 64% 30.17 in 10.0 mi East 4.6 mph - N/A   Mostly Cloudy
12:54 PM 80.1 °F 81.9 °F 64.9 °F 60% 30.17 in 10.0 mi West 3.5 mph - N/A   Mostly Cloudy
1:54 PM 82.0 °F 84.1 °F 66.0 °F 58% 30.15 in 10.0 mi SE 4.6 mph - N/A   Partly Cloudy
2:54 PM 80.1 °F 82.1 °F 66.0 °F 62% 30.12 in 10.0 mi SE 5.8 mph - N/A   Clear
3:54 PM 79.0 °F - 66.0 °F 64% 30.10 in 10.0 mi Calm Calm - N/A   Clear
4:54 PM 78.1 °F - 66.9 °F 68% 30.11 in 10.0 mi SE 4.6 mph - 0.00 in Rain Light Rain
5:54 PM 73.9 °F - 69.1 °F 85% 30.10 in 8.0 mi Calm Calm - 0.00 in Rain Light Rain
6:54 PM 73.0 °F - 69.1 °F 87% 30.09 in 9.0 mi SE 4.6 mph - 0.01 in   Partly Cloudy
7:54 PM 72.0 °F - 68.0 °F 87% 30.08 in 8.0 mi SSE 3.5 mph - N/A   Clear
8:54 PM 69.1 °F - 66.0 °F 90% 30.09 in 10.0 mi Calm Calm - N/A   Clear
9:54 PM 68.0 °F - 64.0 °F 87% 30.10 in 10.0 mi SSE 3.5 mph - N/A   Clear
10:54 PM 66.9 °F - 63.0 °F 87% 30.11 in 10.0 mi Calm Calm - N/A   Clear
11:54 PM 63.0 °F - 62.1 °F 97% 30.12 in 10.0 mi Calm Calm - N/A   Clear